Time,B instrument,Bx,By,Bz,sigma B,Ion instrument,Status,Tp_par,Tp_perp,carrot,r_sun,clat,clong,earth_he_angle,n_p,vp_x,vp_y,vp_z,vth_p_par,vth_p_perp
1980-08-02 01:23:27,-1,nan,nan,nan,nan,1,3,nan,nan,1697,0.91253471,2.456275,104.84631,106.04553,nan,374.252,18.2403,-13.036,nan,nan
1980-08-02 01:26:09,1,5.23333,-4.43333,6.43333,0.382971,1,1,52138.3,42992.4,1697,0.91254491,2.4560747,104.81866,106.04523,5.06575,372.945,18.4414,-13.0756,29.3384,26.6412
1980-08-02 01:28:51,1,5.1,-4.5,6.03333,0.274874,1,1,43635.4,40267.8,1697,0.9125517,2.4559412,104.79504,106.04503,5.53925,370.263,20.1625,-13.1987,26.8397,25.7832
1980-08-02 01:36:57,-1,nan,nan,nan,nan,1,3,nan,nan,1697,0.91257882,2.4554071,104.72,106.04422,nan,368.223,24.7424,-24.5828,nan,nan
1980-08-02 01:39:41,1,4.4,-3.7,7.6,9.93014e-16,1,1,47426.5,43048.6,1697,0.91258901,2.4552069,104.69626,106.04391,4.66557,368.002,21.8821,-21.6228,27.9813,26.6586
1980-08-02 01:42:23,1,4.73333,-3.83333,7.33333,0.316228,1,1,48450.9,47856.6,1697,0.91259921,2.4550066,104.66864,106.04362,4.10528,365.094,16.3353,-20.0751,28.2819,28.1079
1980-08-02 01:45:05,1,4.73333,-3.7,7.2,0.298142,1,1,60534.7,48590.8,1697,0.9126094,2.4548063,104.6449,106.04332,4.64487,367.986,18.2649,-22.4428,31.6126,28.3227
1980-08-02 01:50:45,1,4.4,-2.8,8.4,0.0,1,1,47737.0,46488.2,1697,0.91262639,2.4544725,104.5936,106.04282,4.47315,350.973,63.2485,-26.0598,28.0728,27.7032
1980-08-02 01:53:27,1,5.425,-3.4,6.4,0.402337,1,1,48470.9,36979.6,1697,0.91263658,2.4542723,104.56598,106.04253,5.10482,366.5,22.0852,-16.2382,28.2878,24.7081
1980-08-02 01:56:09,1,5.5,-3.25,6.2,0.278388,1,1,45459.1,39851.6,1697,0.91264677,2.454072,104.54224,106.04222,5.38477,362.561,15.3442,-15.3029,27.3948,25.6496
1980-08-02 01:58:51,1,5.66667,-3.03333,6.13333,0.316228,1,1,46003.5,39843.9,1697,0.91265357,2.4539385,104.51468,106.04202,5.23873,364.854,19.1397,-16.7906,27.5583,25.6471
1980-08-02 02:01:17,1,5.33333,-3.03333,6.66667,0.33665,1,1,45448.0,34223.7,1697,0.9126637,2.4537382,104.49484,106.04172,5.02122,373.288,18.685,-16.4907,27.3915,23.7696
1980-08-02 02:03:59,1,5.83333,-2.8,6.03333,0.362093,1,1,47441.9,45633.9,1697,0.91267049,2.4536037,104.46732,106.04152,4.39701,361.585,19.2926,-15.2764,27.9859,27.4474
1980-08-02 02:06:41,1,6.43333,-2.56667,5.7,0.253859,1,1,42072.9,37144.6,1697,0.91268069,2.4534044,104.44357,106.04121,4.82658,357.625,11.5011,-10.4012,26.3548,24.7631
1980-08-02 02:09:23,1,6.66667,-2.0,5.7,0.262467,1,1,44623.3,40818.9,1697,0.91269088,2.4532042,104.41983,106.04091,5.22176,360.531,11.5354,-10.7835,27.1418,25.959
1980-08-02 02:12:05,1,6.76667,-0.9,5.83333,0.194365,1,1,46268.5,31539.3,1697,0.91270101,2.4530039,104.39218,106.0406,4.9722,358.28,7.16007,-12.4781,27.6376,22.8183
1980-08-02 02:14:47,1,6.55,-1.575,6.3,0.253722,1,1,56781.3,41279.9,1697,0.91270781,2.4528704,104.36853,106.04041,5.35751,359.292,5.61387,-14.3233,30.6169,26.1052
1980-08-02 02:17:29,1,6.7,-2.13333,5.7,0.298142,1,1,45641.9,35355.5,1697,0.912718,2.4526701,104.34479,106.0401,5.11711,362.749,10.5196,-9.92057,27.4498,24.1594
1980-08-02 02:20:11,1,6.56667,-1.6,6.23333,0.253859,1,1,53667.7,41208.8,1697,0.91272819,2.4524698,104.31717,106.03981,5.81995,359.954,3.38629,-12.3156,29.7656,26.0827
1980-08-02 02:22:53,1,6.43333,-1.93333,6.23333,0.282843,1,1,52978.4,38516.5,1697,0.91273493,2.4523363,104.29352,106.0396,5.5813,357.741,10.7695,-12.0991,29.5738,25.2163
1980-08-02 02:25:35,1,6.23333,-2.46667,6.36667,0.270801,1,1,40708.9,43437.9,1697,0.91274512,2.452136,104.26978,106.03931,5.10712,359.317,11.5175,-13.4063,25.924,26.7789
1980-08-02 02:28:17,1,6.3,-2.0,6.1,8.88178e-16,1,1,37736.5,35638.9,1697,0.91275531,2.4519358,104.24213,106.039,4.60465,356.771,11.3256,-13.3928,24.9597,24.2561
1980-08-02 02:30:59,1,6.76667,-1.93333,5.96667,0.282843,1,1,50645.7,37625.2,1697,0.91276211,2.4518013,104.21851,106.0388,5.09727,358.606,10.5468,-13.5141,28.9154,24.9228
1980-08-02 02:33:41,1,6.45,-1.825,6.1,0.386491,1,1,46494.3,36419.1,1697,0.91277224,2.451602,104.19476,106.0385,4.88821,353.543,5.47318,-15.4191,27.705,24.5201
1980-08-02 02:36:23,1,6.95,-0.875,5.6,0.399218,1,1,48218.1,42760.3,1697,0.91278243,2.4514017,104.16711,106.03819,5.60849,354.385,3.2963,-6.83115,28.2139,26.5692
1980-08-02 02:39:05,1,6.625,-1.425,5.9,0.39211,1,1,43560.0,38582.6,1697,0.91279262,2.4512014,104.14337,106.03789,4.92776,353.966,2.79195,-17.0742,26.8165,25.2379
1980-08-02 02:41:47,1,6.33333,-1.86667,5.56667,0.282843,1,1,55429.6,41008.4,1697,0.91279936,2.4510679,104.11581,106.03769,5.39063,355.173,7.69012,-10.1929,30.2502,26.0192
1980-08-02 02:44:29,1,6.7,-1.8,5.7,0.0,1,1,43182.9,41387.7,1697,0.91280955,2.4508677,104.09207,106.03738,4.81763,355.297,7.22475,-12.7148,26.7002,26.1393
1980-08-02 02:47:11,1,6.4,-1.1,6.1,1.25607e-15,1,1,51581.4,48915.6,1697,0.91281974,2.4506674,104.06833,106.03708,5.33058,354.929,5.92445,-13.9962,29.1813,28.4172
1980-08-02 02:49:53,1,6.63333,-1.43333,6.1,0.210819,1,1,42548.2,31729.8,1697,0.91282654,2.4505339,104.0408,106.03688,4.64049,357.908,9.6287,-11.8308,26.5032,22.8871
1980-08-02 02:52:35,1,6.36667,-1.4,6.1,0.249444,1,1,41416.7,42043.4,1697,0.91283667,2.4503336,104.01706,106.03658,5.16394,360.325,4.32172,-9.81153,26.1484,26.3455
1980-08-02 02:55:17,1,6.4,-1.53333,6.1,0.149071,1,1,46036.5,38546.8,1697,0.91284686,2.4501333,103.99332,106.03629,5.06632,358.651,8.34513,-9.61105,27.5683,25.2262
1980-08-02 02:57:59,1,6.05,-2.05,6.3,0.339116,1,1,47561.5,41245.2,1697,0.91285366,2.4499989,103.96576,106.03607,5.27896,359.666,7.8299,-14.1564,28.0211,26.0942
1980-08-02 03:00:41,1,6.0,-1.7,6.25,0.304138,1,1,46520.2,48554.6,1697,0.91286385,2.4497995,103.94205,106.03578,5.72171,359.193,7.22239,-6.8504,27.7127,28.3122
1980-08-02 03:03:23,1,6.0,-1.86667,6.06667,0.301846,1,1,42710.6,45543.6,1697,0.91287398,2.4495993,103.9183,106.03548,5.10468,360.117,7.20569,-13.0921,26.5537,27.4202
1980-08-02 03:06:05,1,6.6,-1.86667,5.7,0.169967,1,1,46769.5,40712.2,1697,0.91288412,2.449399,103.89066,106.03517,5.05948,360.544,9.79458,-8.00007,27.7868,25.9251
1980-08-02 03:08:47,1,6.3,-1.56667,6.1,0.149071,1,1,53573.2,42434.2,1697,0.91289091,2.4492655,103.867,106.03497,5.06373,357.91,11.5869,-14.2824,29.7394,26.4677
1980-08-02 03:11:29,1,7.0,-1.3,5.3,0.0,1,1,46123.9,43343.4,1697,0.9129011,2.4490652,103.84326,106.03467,5.12646,348.772,8.65512,-7.9811,27.5944,26.7497
1980-08-02 03:14:11,1,6.33333,-2.46667,5.56667,0.424264,1,1,42267.4,43616.4,1697,0.91291124,2.4488649,103.81561,106.03436,4.48003,350.437,16.1245,-13.312,26.4156,26.8338
1980-08-02 03:16:53,1,6.43333,-1.83333,5.7,0.405518,1,1,39853.2,37795.3,1697,0.91291803,2.4487314,103.79199,106.03416,4.60053,353.57,12.9427,-17.5918,25.6501,24.9791
1980-08-02 03:19:35,1,6.2,-1.63333,6.2,0.485341,1,1,34734.9,37633.7,1697,0.91292816,2.4485312,103.76825,106.03386,4.54207,349.426,4.96812,-21.1354,23.9464,24.9257
1980-08-02 03:22:17,1,6.23333,-3.26667,5.43333,0.305505,1,1,34791.4,38877.2,1697,0.9129383,2.4483309,103.7406,106.03355,4.57237,353.998,17.9368,-16.1175,23.9659,25.3341
1980-08-02 03:24:59,1,6.26667,-2.96667,5.03333,0.282843,1,1,43766.2,44957.2,1697,0.91294509,2.4481974,103.71695,106.03336,4.87796,356.599,24.0291,-9.27087,26.8799,27.2432
1980-08-02 03:27:41,1,6.46667,-3.36667,4.9,0.210819,1,1,44434.9,36563.8,1697,0.91295528,2.4479971,103.69321,106.03305,4.49959,353.656,22.4858,-7.75144,27.0845,24.5688
1980-08-02 03:30:23,1,6.0,-4.3,4.36667,0.329983,1,1,41065.9,41223.6,1697,0.91296542,2.4477968,103.66556,106.03275,4.59313,358.346,28.6732,-4.10077,26.0375,26.0874
1980-08-02 03:33:05,1,5.63333,-4.43333,3.93333,0.34641,1,1,42617.1,40813.6,1697,0.91297555,2.4475965,103.64182,106.03244,4.46989,358.375,25.6487,-1.16388,26.5247,25.9574
1980-08-02 03:35:47,1,5.83333,-4.23333,4.1,0.24037,1,1,41545.8,43544.2,1697,0.91298234,2.447463,103.61429,106.03224,4.85685,357.952,29.5114,-1.11118,26.1891,26.8116
1980-08-02 03:38:29,1,5.55,-4.95,3.0,0.331662,1,1,41460.6,39042.7,1697,0.91299254,2.4472628,103.59055,106.03194,4.52945,359.763,30.6122,4.07062,26.1623,25.388
1980-08-02 03:41:11,1,6.43333,-1.23333,6.36667,0.621825,1,1,37151.5,37621.9,1697,0.91300267,2.4470625,103.5668,106.03163,4.60027,349.162,1.87439,-19.6595,24.7654,24.9217
1980-08-02 03:43:53,1,5.425,-4.0,5.125,0.322102,1,1,37291.1,37634.0,1697,0.91300946,2.446929,103.53925,106.03143,4.63686,357.464,26.4363,-13.7857,24.8119,24.9258
1980-08-02 03:46:35,1,5.6,-4.06667,4.73333,0.266667,1,1,37415.7,42259.7,1697,0.9130196,2.4467287,103.5155,106.03113,4.91174,358.254,30.2202,-4.77523,24.8533,26.4132
1980-08-02 03:49:17,1,6.13333,-1.8,6.36667,0.352767,1,1,42423.1,35954.7,1697,0.91302979,2.4465284,103.49176,106.03082,4.9268,349.965,7.86203,-20.7312,26.4642,24.3633
1980-08-02 03:51:59,1,5.93333,-0.833333,6.66667,0.282843,1,1,40472.3,37182.4,1697,0.91303653,2.4463949,103.46423,106.03062,5.22972,354.466,-0.0416772,-22.1799,25.8486,24.7757
1980-08-02 03:54:41,1,6.4,-1.23333,6.63333,0.278887,1,1,39666.4,38043.0,1697,0.91304672,2.4461946,103.44049,106.03032,4.8985,349.1,5.88032,-20.8486,25.5899,25.0608
1980-08-02 03:57:23,1,6.16667,-1.93333,6.5,0.278887,1,1,47635.0,41033.6,1697,0.91305685,2.4459944,103.41675,106.03001,4.97293,352.041,14.0021,-18.6623,28.0428,26.0272
1980-08-02 04:00:05,1,6.15,-2.1,6.4,0.25,1,1,40962.1,37760.3,1697,0.91306704,2.4457951,103.3891,106.02972,4.86338,353.563,17.3167,-22.3065,26.0045,24.9675
1980-08-02 04:02:47,1,5.35,-2.8,6.7,0.259808,1,1,40678.2,38234.1,1697,0.91307378,2.4456615,103.36545,106.02951,4.78936,356.395,18.5195,-24.4193,25.9143,25.1237
1980-08-02 04:05:29,1,5.175,-2.7,6.9,0.420565,1,1,37459.1,32597.0,1697,0.91308391,2.4454613,103.34171,106.02921,4.65029,354.482,15.2206,-22.907,24.8677,23.1978
1980-08-02 04:08:11,1,5.63333,-2.76667,6.53333,0.270801,1,1,42969.2,40337.2,1697,0.91309404,2.445261,103.31409,106.02892,5.12194,352.424,17.3902,-21.1773,26.634,25.8054
1980-08-02 04:10:53,1,5.5,-2.8,6.8,0.4,1,1,43814.9,31578.5,1697,0.91310084,2.4451275,103.29044,106.0287,5.21834,357.915,19.2514,-22.2273,26.8948,22.8325
1980-08-02 04:13:35,1,5.33333,-3.06667,6.8,0.253859,1,1,37604.2,37123.7,1697,0.91311097,2.4449272,103.26669,106.02841,4.5289,358.162,20.0042,-27.297,24.9159,24.7562
1980-08-02 04:16:17,1,6.1,-2.7,5.8,0.46188,1,1,43692.6,36553.1,1697,0.9131211,2.4447269,103.23904,106.02811,5.06033,350.726,20.8463,-7.43965,26.8573,24.5652
1980-08-02 04:18:59,1,6.13333,-1.93333,6.63333,0.33665,1,1,36206.6,41498.6,1697,0.9131279,2.4445934,103.21539,106.02789,5.02409,348.876,5.73489,-22.7077,24.4485,26.1743
1980-08-02 04:21:41,1,5.73333,-2.86667,6.0,0.253859,1,1,49616.8,28232.0,1697,0.91313803,2.4443932,103.18777,106.0276,4.47453,358.964,21.4756,-18.3966,28.6202,21.5888
1980-08-02 04:27:05,1,6.33333,-2.3,5.96667,0.312694,1,1,37072.7,35893.1,1697,0.9131583,2.4439926,103.14029,106.02699,4.66144,350.685,13.038,-24.0008,24.7392,24.3424
1980-08-02 04:29:47,1,6.1,-2.83333,5.96667,0.352767,1,1,43641.9,40118.2,1697,0.91316509,2.4438591,103.11273,106.02679,4.52589,353.23,24.9941,-15.9596,26.8417,25.7353
1980-08-02 04:32:29,1,6.63333,-1.4,6.36667,0.42947,1,1,35321.2,43030.1,1697,0.91317523,2.4436598,103.08899,106.02649,4.72791,348.186,13.0595,-17.2968,24.1477,26.6529
1980-08-02 04:35:11,1,6.0,-2.9,6.1,0.439697,1,1,37009.3,39510.4,1697,0.91318536,2.4434595,103.06525,106.02618,4.23127,350.421,20.7558,-20.1429,24.718,25.5396
1980-08-02 04:37:53,1,6.06667,-3.46667,5.43333,0.282843,1,1,33930.1,34270.2,1697,0.91319215,2.443326,103.03772,106.02599,4.46097,351.411,22.3972,-2.5017,23.6674,23.7857
1980-08-02 04:40:35,1,5.86667,-3.43333,5.16667,0.454606,1,1,34003.1,36180.7,1697,0.91320229,2.4431257,103.01398,106.02568,4.4291,357.55,26.9647,-13.9851,23.6928,24.4397
1980-08-02 04:43:17,1,5.86667,-3.43333,4.9,0.253859,1,1,36191.0,27880.2,1697,0.91321242,2.4429255,102.99023,106.02538,4.53053,357.258,21.5225,-13.9917,24.4432,21.4539
1980-08-02 04:45:59,1,5.86667,-3.43333,5.03333,0.316228,1,1,46205.9,43637.4,1697,0.91321921,2.4427919,102.96268,106.02518,5.78477,357.037,24.6869,-12.2743,27.6189,26.8403
1980-08-02 04:48:41,1,6.2,-2.86667,5.03333,0.323179,1,1,33352.3,32772.0,1697,0.91322935,2.4425917,102.93893,106.02487,4.33379,351.483,22.5355,-14.0965,23.465,23.26
1980-08-02 04:51:23,1,8.76667,-7.53333,5.13333,0.828654,1,1,30076.4,85273.5,1697,0.91323948,2.4423914,102.91519,106.02457,6.92618,385.794,57.4765,12.7561,22.2829,37.5202
1980-08-02 04:54:05,1,8.5,-9.725,4.3,0.426468,1,1,53718.8,77254.1,1697,0.91324961,2.4421911,102.88754,106.02426,8.51604,393.52,66.2535,32.9314,29.7797,35.7124
1980-08-02 04:56:47,1,8.625,-9.675,6.0,0.372492,1,1,46400.0,106535.0,1697,0.91325641,2.4420576,102.86392,106.02406,9.24548,395.24,76.6969,32.5244,27.6769,41.9377
1980-08-02 04:59:29,1,8.025,-11.5,3.55,0.815092,1,1,41190.5,82027.9,1697,0.91326654,2.4418573,102.84018,106.02376,7.59725,408.538,78.3539,26.5437,26.0769,36.7992
1980-08-02 05:02:11,1,7.05,-11.25,6.9,0.339116,1,1,39996.2,81194.7,1697,0.91327667,2.441658,102.81253,106.02345,8.08642,393.726,70.1713,23.3441,25.6961,36.6119
1980-08-02 05:04:53,1,7.75,-10.725,6.025,0.443001,1,1,46399.7,95861.5,1697,0.91328341,2.4415245,102.78888,106.02325,12.1342,406.091,71.6767,19.0357,27.6768,39.7814
1980-08-02 05:07:35,1,8.65,-11.125,5.125,1.0253,1,1,47743.6,76516.5,1697,0.91329354,2.4413242,102.76123,106.02295,8.32248,405.364,71.5343,27.1925,28.0747,35.5415
1980-08-02 05:10:17,1,7.33333,-11.4333,5.1,0.405518,1,1,53778.7,65480.1,1697,0.91330367,2.441124,102.73749,106.02264,8.80415,405.815,72.4479,22.1762,29.7964,32.8785
1980-08-02 05:12:59,1,9.03333,-9.5,4.93333,0.323179,1,1,50440.6,85960.8,1697,0.91331041,2.4409904,102.71387,106.02245,8.63786,388.631,68.9802,32.4074,28.8568,37.6711
1980-08-02 05:15:41,1,9.86667,-8.96667,4.56667,0.559762,1,1,34160.8,107214.0,1697,0.91332054,2.4407902,102.68622,106.02214,9.67271,383.172,65.7393,30.1887,23.7477,42.0711
1980-08-02 05:18:23,1,6.3,-10.775,7.325,0.329773,1,1,45343.4,68908.8,1697,0.91333067,2.4405899,102.66248,106.02184,7.48765,412.322,64.2405,13.1267,27.3599,33.7284
1980-08-02 05:21:05,1,7.45,-10.75,5.7,0.951315,1,1,46813.5,64516.7,1697,0.91334081,2.4403906,102.63873,106.02153,8.76267,401.909,63.329,30.625,27.7999,32.6358
1980-08-02 05:23:47,1,6.075,-11.025,6.85,0.718505,1,1,43261.6,66666.5,1697,0.91334754,2.4402571,102.61118,106.02133,8.17824,413.483,67.169,6.83088,26.7245,33.1751
1980-08-02 05:26:29,1,8.8,-8.75,7.3,0.618466,1,1,29417.6,74896.3,1697,0.91335768,2.4400568,102.58743,106.02103,8.16439,389.427,57.3919,16.0114,22.0375,35.1632
1980-08-02 05:29:11,1,8.5,-7.625,8.75,0.59108,1,1,41564.6,85786.0,1697,0.91336781,2.4398565,102.56369,106.02072,9.39944,392.209,56.5009,-4.01384,26.1951,37.6328
1980-08-02 05:31:53,1,9.45,-7.2,8.3,0.409268,1,1,40115.9,84695.6,1697,0.9133746,2.439723,102.53613,106.02051,9.4661,386.151,51.4527,7.89253,25.7345,37.3928
1980-08-02 05:34:35,1,7.46667,-11.3333,3.5,0.380058,1,1,39552.9,71366.9,1697,0.91338474,2.4395227,102.51239,106.0202,8.33183,403.474,64.8525,22.463,25.5533,34.3247
1980-08-02 05:37:17,1,10.4,-5.96667,7.6,0.298142,1,1,45275.8,70421.9,1697,0.91339487,2.4393225,102.48868,106.01991,8.39108,377.792,44.4236,7.42858,27.3395,34.0967
1980-08-02 05:39:59,1,11.6,-5.46667,5.96667,0.581187,1,1,29444.4,95675.0,1697,0.9134016,2.439189,102.46112,106.0197,9.15741,371.166,38.9811,15.9709,22.0475,39.7427
1980-08-02 05:42:41,1,9.575,-7.975,6.8,0.136931,1,1,31710.4,71501.8,1697,0.91341174,2.4389896,102.43738,106.01939,8.5556,384.382,50.4326,16.9034,22.8801,34.3571
1980-08-02 05:45:23,1,10.55,-7.4,5.65,0.212132,1,1,42323.1,76275.8,1697,0.91342187,2.4387894,102.41364,106.01909,8.28456,380.343,47.9951,18.669,26.433,35.4855
1980-08-02 05:48:05,1,10.6,-7.15,4.825,0.198431,1,1,37225.8,74796.9,1697,0.913432,2.4385891,102.38599,106.01878,8.40015,373.982,44.3227,23.5364,24.7902,35.1398
1980-08-02 05:50:47,1,9.73333,-6.53333,8.26667,0.282843,1,1,34263.8,77676.3,1697,0.91343874,2.4384556,102.36234,106.01859,7.23468,381.963,44.5592,-1.20122,23.7835,35.8098
1980-08-02 05:53:29,1,8.725,-6.475,9.3,0.478278,1,1,36241.7,75052.5,1697,0.91344887,2.4382553,102.33859,106.01828,7.12594,378.323,39.5925,-5.06524,24.4603,35.1998
1980-08-02 05:56:11,1,8.76667,-9.26667,3.6,0.24037,1,1,38853.7,74447.1,1697,0.913459,2.438055,102.31094,106.01797,7.78909,385.326,60.1977,38.7775,25.3264,35.0576
1980-08-02 05:58:53,1,8.43333,-7.53333,7.9,0.210819,1,1,34117.9,72297.4,1697,0.91346574,2.4379215,102.28732,106.01778,6.38064,378.744,50.8077,4.84206,23.7328,34.5477
1980-08-02 06:01:35,1,8.06667,-7.6,7.9,0.298142,1,1,43908.6,79702.8,1697,0.91347587,2.4377222,102.25967,106.01747,7.21705,382.918,47.61,-0.656144,26.9236,36.2739
1980-08-02 06:04:17,1,8.3,-6.7,8.56667,0.188562,1,1,40862.0,93525.0,1697,0.913486,2.4375219,102.23593,106.01717,9.25597,379.134,49.3781,1.81144,25.9727,39.2936
1980-08-02 06:06:59,1,9.23333,-5.8,8.56667,0.194365,1,1,37958.2,79704.3,1697,0.91349274,2.4373884,102.21228,106.01697,7.23327,377.523,43.9462,-5.85733,25.0329,36.2743
1980-08-02 06:09:41,1,9.16667,-6.0,8.86667,0.421637,1,1,32916.9,91544.1,1697,0.91350287,2.4371881,102.18463,106.01666,7.31722,374.503,42.8236,-0.709727,23.3114,38.8752
1980-08-02 06:12:23,1,10.9667,-7.46667,4.63333,0.282843,1,1,44413.6,82779.7,1697,0.91351295,2.4369879,102.16089,106.01636,8.09215,373.52,42.0324,17.0797,27.078,36.9675
1980-08-02 06:15:05,1,10.9667,-7.06667,4.1,0.333333,1,1,36959.0,91155.4,1697,0.91352308,2.4367886,102.13715,106.01605,8.13516,370.462,48.1651,19.164,24.7012,38.7926
1980-08-02 06:17:47,1,11.4,-6.0,2.9,0.0,1,1,37877.6,80886.6,1697,0.91352981,2.436655,102.10959,106.01584,7.88497,367.047,39.6662,29.3227,25.0063,36.5423
1980-08-02 06:20:29,1,11.1667,-7.03333,2.9,0.380058,1,1,38688.7,72283.8,1697,0.91353995,2.4364548,102.08585,106.01553,7.32603,373.696,45.838,32.1847,25.2726,34.5445
1980-08-02 06:23:11,1,10.4,-7.33333,3.63333,0.176383,1,1,27034.8,90403.8,1697,0.91355008,2.4362545,102.0621,106.01523,7.038,371.787,52.8249,27.9328,21.1261,38.6323
1980-08-02 06:25:53,1,10.475,-7.25,2.225,0.310242,1,1,35407.0,74062.1,1697,0.91355681,2.436121,102.03458,106.01503,7.04433,373.579,44.2899,33.3193,24.177,34.9668
1980-08-02 06:28:35,1,10.75,-6.5,3.15,0.533854,1,1,44053.7,79559.5,1697,0.91356689,2.4359207,102.01083,106.01472,7.50064,370.682,50.2409,38.249,26.968,36.2413
1980-08-02 06:31:17,1,10.275,-6.65,4.9,0.24367,1,1,43124.8,84839.3,1697,0.91357702,2.4357214,101.98709,106.01442,7.33979,370.184,47.2991,17.2462,26.6822,37.4245
1980-08-02 06:33:59,1,10.0667,-7.03333,4.13333,0.503322,1,1,45656.1,75735.8,1697,0.91358376,2.4355879,101.95953,106.01422,7.49119,379.138,47.0107,21.1976,27.4541,35.3597
1980-08-02 06:36:41,1,10.0,-5.2,6.4,0.0,1,1,39671.3,98339.4,1697,0.91359389,2.4353876,101.93579,106.01392,8.00184,365.344,41.989,5.03417,25.5915,40.2923
1980-08-02 06:39:23,1,10.2,-4.76667,6.53333,0.266667,1,1,39155.0,87354.6,1697,0.91360402,2.4351873,101.91205,106.01361,7.6263,362.83,33.8327,8.2591,25.4244,37.9753
1980-08-02 06:42:05,1,10.0,-4.66667,7.06667,0.253859,1,1,36340.1,76332.7,1697,0.91361409,2.4349871,101.8844,106.01331,8.10128,364.83,35.8641,5.15904,24.4935,35.4988
1980-08-02 06:44:47,1,11.6,-3.06667,4.83333,0.266667,1,1,37974.2,88756.4,1697,0.91362083,2.4348536,101.86075,106.01309,8.00296,357.48,27.9685,19.854,25.0381,38.2787
1980-08-02 06:47:29,1,10.9667,-4.03333,5.73333,1.05198,1,1,33628.1,90939.0,1697,0.91363096,2.4346542,101.8331,106.01279,7.9409,359.133,30.8693,23.8468,23.5618,38.7465
1980-08-02 06:50:11,1,10.7,-4.175,6.7,0.326917,1,1,35699.4,82572.1,1697,0.9136411,2.434454,101.80936,106.01248,7.56295,363.294,33.076,9.73278,24.2766,36.9211
1980-08-02 06:52:53,1,9.875,-5.0,6.8,0.593191,1,1,42421.5,76045.1,1697,0.91364783,2.4343204,101.78574,106.01228,7.1583,367.172,37.3246,5.85615,26.4637,35.4318
1980-08-02 06:55:35,1,10.2,-5.35,5.8,0.357071,1,1,35670.5,79797.8,1697,0.91365796,2.4341202,101.75809,106.01198,7.65749,364.441,40.8001,13.2072,24.2668,36.2956
1980-08-02 06:58:17,1,9.4,-5.56667,6.63333,0.343188,1,1,37571.8,66557.4,1697,0.91366804,2.4339199,101.73434,106.01167,7.10496,370.062,43.6055,-0.0482376,24.9051,33.1479
1980-08-02 07:00:59,1,9.06667,-6.16667,6.73333,0.4,1,1,38597.8,75905.8,1697,0.91367483,2.4337864,101.71069,106.01147,7.66785,368.913,42.7581,4.2272,25.2429,35.3994
1980-08-02 07:03:41,1,9.1,-6.46667,6.06667,0.24037,1,1,39477.1,72661.4,1697,0.9136849,2.4335871,101.68304,106.01117,6.98925,368.755,43.9981,3.49818,25.5288,34.6346
1980-08-02 07:06:23,1,9.66667,-3.93333,7.63333,0.424264,1,1,32499.0,71962.9,1697,0.91369498,2.4333868,101.6593,106.01085,6.66539,363.315,29.4186,-2.80035,23.1629,34.4677
1980-08-02 07:14:29,-1,nan,nan,nan,nan,1,3,nan,nan,1698,0.9137494,2.2795031,101.51074,105.93652,nan,373.146,39.8271,0.461209,nan,nan
1980-08-02 07:17:11,1,9.8,-5.5,6.4,0.254951,1,1,29211.2,63579.2,1698,0.91375852,2.279314,101.48703,105.93625,5.8154,368.01,38.7146,1.76447,21.96,32.3978
1980-08-02 07:19:33,1,8.56667,-7.06667,5.1,0.24037,1,1,35418.0,70405.0,1697,0.91373873,2.4325199,101.5369,106.00954,6.57901,365.97,36.9452,-0.244007,24.1807,34.0926
1980-08-02 07:19:53,1,8.83333,-6.16667,5.36667,1.31656,1,1,48971.5,86067.9,1697,0.91373873,2.4325199,101.53299,106.00954,8.34085,377.232,56.4365,16.8906,28.4335,37.6945
1980-08-02 07:22:35,1,9.86667,-4.93333,6.4,0.210819,1,1,34810.9,68487.1,1697,0.91374886,2.4323196,101.50925,106.00923,6.93674,363.374,36.2286,5.02287,23.9726,33.625
1980-08-02 07:27:57,1,9.73333,-4.66667,7.03333,0.270801,1,1,36546.7,68667.4,1697,0.91376567,2.4319859,101.45795,106.00871,7.26261,364.877,34.8095,-1.22296,24.563,33.6692
1980-08-02 07:33:21,1,10.1333,-3.33333,7.13333,0.216025,1,1,32215.3,72780.9,1697,0.91378587,2.4315863,101.41046,106.0081,6.33706,356.542,22.0323,-1.33794,23.0616,34.663
1980-08-02 07:38:45,1,8.73333,-7.03333,4.43333,0.439697,1,1,40301.5,68757.3,1697,0.91380268,2.4312525,101.35916,106.0076,6.65363,367.2,47.2337,10.0056,25.794,33.6913
1980-08-02 07:44:11,1,9.13333,-4.46667,7.5,0.38873,1,1,41015.9,78667.1,1697,0.91382289,2.4308519,101.30777,106.00697,8.00129,362.239,30.3342,-3.17746,26.0216,36.0375
1980-08-02 08:00:23,-1,nan,nan,nan,nan,1,3,nan,nan,1697,0.91387677,2.4297857,101.15771,106.00536,nan,366.708,36.7227,-7.46377,nan,nan
1980-08-02 08:05:47,-1,nan,nan,nan,nan,1,3,nan,nan,1697,0.91389358,2.4294519,101.10641,106.00484,nan,368.145,38.7481,-10.6083,nan,nan
1980-08-02 08:11:11,1,7.63333,-3.03333,9.4,0.210819,1,1,42284.5,74516.6,1697,0.91391373,2.4290524,101.05893,106.00423,8.11442,369.368,31.3829,-15.3959,26.421,35.0739
1980-08-02 08:16:35,1,7.5,-4.275,9.4,0.216506,1,1,46205.8,67166.5,1697,0.91393054,2.4287186,101.00763,106.00371,7.02649,372.249,30.893,-17.2601,27.6189,33.2992
1980-08-02 08:21:59,1,7.15,-3.25,9.35,1.2278,1,1,46508.3,49629.2,1697,0.91394734,2.4283857,100.95633,106.0032,5.56153,371.003,32.0613,-17.2513,27.7091,28.6238
1980-08-02 08:27:23,1,6.46667,-1.86667,10.7667,0.424264,1,1,36816.0,47998.4,1697,0.91396749,2.4279852,100.90494,106.00259,7.46624,381.184,12.5234,-26.1958,24.6534,28.1495
1980-08-02 08:32:47,1,5.53333,-0.6,11.4667,0.473756,1,1,37914.0,54266.0,1697,0.9139843,2.4276524,100.85754,106.00208,8.10441,383.807,6.7641,-28.6252,25.0183,29.931
1980-08-02 08:38:11,1,2.925,1.575,12.2,0.136931,1,1,37614.5,43038.7,1697,0.9140045,2.4272518,100.80615,106.00146,8.44267,400.45,-6.55155,-30.5522,24.9193,26.6555
1980-08-02 08:43:35,1,0.466667,2.1,12.4,0.434613,1,1,39128.7,33016.8,1697,0.91402131,2.426919,100.75485,106.00095,8.8936,416.729,-9.70461,-31.2737,25.4159,23.3467
1980-08-02 08:48:59,1,1.3,-0.133333,12.3667,0.323179,1,1,42612.3,36014.0,1697,0.91403812,2.4265852,100.70749,106.00044,8.70991,408.81,13.2146,-31.3707,26.5232,24.3834
1980-08-02 08:54:23,1,4.625,0.675,11.4,0.716764,1,1,35418.1,34091.3,1697,0.91405827,2.4261856,100.6561,105.99983,8.4269,388.418,-0.811745,-25.4371,24.1808,23.7236
1980-08-02 08:59:47,1,6.6,2.13333,10.1333,0.352767,1,1,35641.9,35064.3,1697,0.91407508,2.4258518,100.6048,105.99931,8.13526,380.655,-11.1827,-20.8735,24.2571,24.0597
1980-08-02 09:05:11,1,6.86667,-0.366667,9.96667,0.316228,1,1,32209.8,42872.5,1697,0.91409522,2.4254522,100.55731,105.9987,8.37283,372.62,6.68693,-18.7034,23.0596,26.604